Location: *
(52.8802°S, 173.1389°W)
Time: 13:00:20
(UTC+00:00)

Daily predictions for brighter satellites

Satellite Brightness Start Highest point End
(mag) Time Altitude Azimuth Time Altitude Azimuth Time Altitude Azimuth
Cosmos 2227 Rocket 4.5 15:13:49 17° SSE 15:13:49 17° SSE 15:15:07 10° SSE
USA 267 3.6 15:25:21 10° E 15:31:09 62° SE 15:31:09 62° SE
USA 59 Rocket 3.1 15:42:53 20° N 15:42:53 20° N 15:44:51 10° N
SJ 16-02 4.5 15:38:54 10° ENE 15:40:25 12° E 15:41:56 10° ESE
ATLAS 2AS CENTAUR R/B 3.0 15:50:56 59° NNE 15:51:51 65° NE 15:59:03 10° SE
Cosmos 2263 Rocket 3.8 15:54:58 24° S 15:54:58 24° S 15:57:24 10° SSE
ATLAS 3B R/B 2.7 15:54:49 64° NE 15:54:49 64° NE 16:00:10 10° NE
Cosmos 1833 Rocket 3.6 15:57:36 41° SSE 15:58:36 46° SE 16:04:04 10° ENE
SeaSat 1 4.4 15:55:38 10° SE 15:59:50 27° ENE 16:03:59 10° NNE
Cosmos 2082 Rocket 4.2 16:01:26 17° S 16:03:42 22° SSE 16:08:01 10° E
ARIANE 5 R/B 3.3 15:59:27 10° NE 16:04:33 52° ESE 16:06:21 36° SSE
Lacrosse 5 rocket 3.7 16:11:48 17° ENE 16:11:48 17° ENE 16:13:36 10° E
SL-16 R/B 2.6 16:08:18 10° SSE 16:14:37 78° ENE 16:18:08 28° N
Cosmos 1953 3.8 16:21:29 34° E 16:21:29 34° E 16:24:42 10° NE
Cosmos 2297 Rocket 4.2 16:23:19 15° S 16:23:19 15° S 16:25:45 10° SSE
IRAS Rocket 4.4 16:22:10 10° NNE 16:27:47 73° ESE 16:31:46 20° SSW
Cosmos 2251 Rocket 3.6 16:27:06 51° N 16:28:22 73° ENE 16:33:41 10° SSE
Cosmos 1190 Rocket 4.4 16:27:57 26° N 16:30:51 62° ENE 16:36:09 10° SSE
CORIOLIS 4.3 16:27:47 10° NNE 16:33:14 75° ESE 16:37:48 15° SSW
CRYOSAT 2 4.3 16:28:45 10° N 16:33:41 87° E 16:38:43 10° S
CZ-3B R/B 3.2 16:33:03 55° WNW 16:33:45 59° NNW 16:47:28 10° NE
Meteor 1-15 Rocket 4.2 16:32:37 33° SSW 16:35:25 80° W 16:41:14 10° N
Meteor 2-19 Rocket 4.3 16:30:14 15° NNW 16:35:32 82° WSW 16:41:44 10° S
IRS-P3 Rocket 4.4 16:32:23 10° NNE 16:37:39 77° WNW 16:38:16 68° SW
Cosmos 841 Rocket 3.5 16:37:22 50° SSW 16:38:46 81° ESE 16:44:02 10° NNE
USA 308 4.3 16:39:22 27° NNE 16:39:53 28° NE 16:43:13 10° E
ERS-1 4.4 16:37:23 10° NNE 16:42:24 84° ESE 16:45:17 27° SSW
IGS 5A 3.8 16:40:59 10° NNE 16:44:12 56° NNE 16:44:12 56° NNE
USA 229 DEB 3.5 16:44:55 53° W 16:45:51 58° NW 16:51:43 10° NNE
USA 229 3.5 16:44:56 53° W 16:45:54 59° NW 16:51:48 10° NNE
IRS-P3 4.2 16:40:54 10° NNE 16:46:16 81° ESE 16:51:09 13° SSW
Cosmos 1844 Rocket 2.7 16:46:07 58° WSW 16:46:16 58° SW 16:51:53 10° SSE
ISS -2.1 16:46:46 30° NE 16:46:46 30° NE 16:49:36 10° E
Cosmos 1933 Rocket 3.5 16:48:11 70° SSW 16:48:42 87° W 16:53:12 10° N
Meteor 1-12 Rocket 4.2 16:45:43 10° SSW 16:51:30 85° ESE 16:57:16 10° NNE
Cosmos 1515 Rocket 3.4 16:52:12 55° NNW 16:53:09 82° WSW 16:57:40 10° S
BlueWalker 3 2.8 16:53:38 38° NNE 16:53:57 39° NNE 16:57:26 10° E
Cosmos 2227 Rocket 4.0 16:55:36 17° SSW 16:55:36 17° SSW 16:58:53 10° SSE
SMAP 2.9 16:50:41 10° NNE 16:55:24 79° WNW 16:57:18 37° SSW
UNK 3.5 16:51:10 10° SSE 16:55:48 78° WSW 16:57:54 32° NNW
Meteor 1-13 Rocket 4.2 16:50:21 10° NNW 16:56:15 72° WSW 17:02:19 10° S
Cosmos 1725 Rocket 4.2 16:50:44 10° S 16:57:01 73° ESE 17:03:17 10° NNE
SJ-6F 4.4 16:54:15 10° NNE 16:58:22 86° ESE 16:59:48 41° SSW
Cosmos 1802 Rocket 4.1 16:52:09 10° S 16:58:36 82° E 17:05:03 10° NNE
BREEZE-M DEB (TANK) 4.1 16:59:58 20° NNE 16:59:58 20° NNE 17:01:34 10° ENE
Cosmos 1844 3.9 17:01:28 45° W 17:02:37 52° SW 17:08:18 10° SSE
Cosmos 1869 Rocket 3.5 17:02:22 21° SSW 17:05:23 88° W 17:09:53 10° N
ATLAS 5 CENTAUR R/B 1.4 17:06:35 80° NNW 17:06:35 80° NNW 17:08:56 10° NE
Cosmos 2100 Rocket 4.0 17:02:06 10° SSW 17:08:28 65° W 17:14:41 10° N
Cosmos 1727 Rocket 3.9 17:05:42 10° NNW 17:11:57 64° WSW 17:18:14 10° S
Spot 4 Rocket 4.3 17:07:07 10° NNE 17:12:15 70° ESE 17:17:27 10° SSW
Cosmos 407 Rocket 3.9 17:12:27 40° WSW 17:12:51 40° SW 17:17:54 10° SSE
BREEZE-M DEB (TANK) 3.4 17:11:34 30° NW 17:13:19 54° NNE 17:22:31 10° E
USA 267 3.2 17:08:15 10° ENE 17:14:52 80° NNW 17:18:30 30° WSW
IRS-1C 4.3 17:10:17 10° N 17:15:28 49° W 17:18:34 24° SW
Meteor 1-23 Rocket 4.1 17:11:33 10° NNW 17:17:12 76° WSW 17:22:53 10° S
SJ 16-02 1.3 17:13:27 10° NNW 17:17:48 82° ENE 17:22:13 10° SSE
AQUARIUS 4.0 17:17:07 10° N 17:21:35 71° WNW 17:25:21 15° SSW
CZ-2D R/B 3.3 17:19:19 10° NNE 17:23:25 82° WNW 17:26:29 17° SSW
BREEZE-M (TANK) 3.9 17:22:44 27° W 17:25:07 38° NW 17:28:09 10° NNE
Cosmos 2123 Rocket 4.0 17:19:07 10° N 17:25:30 89° W 17:31:58 10° S
Cosmos 2016 Rocket 3.9 17:19:29 10° SSW 17:25:44 79° W 17:31:59 10° N
Landsat 7 3.7 17:22:18 10° N 17:27:01 77° WNW 17:31:48 10° SSW
SL-08 R/B 4.5 17:22:12 10° NNW 17:28:35 80° W 17:35:08 10° S
Cosmos 1703 3.5 17:27:54 10° N 17:31:22 60° E 17:34:53 10° SSE
Okean 2 3.3 17:30:28 10° N 17:34:27 82° E 17:38:30 10° SSE
Cosmos 1461 2.9 17:35:58 39° W 17:36:32 43° NW 17:39:55 10° NNE
ATLAS 5 CENTAUR R/B 2.8 17:29:22 10° NW 17:36:42 83° NE 17:43:31 10° SE
Cosmos 2173 Rocket 4.3 17:30:38 10° SSW 17:36:43 45° W 17:42:40 10° NNW
SL-08 R/B 4.4 17:30:50 10° SSW 17:37:13 76° W 17:43:26 10° N
SeaSat 1 2.4 17:32:37 10° SSE 17:37:33 64° SW 17:42:26 10° NW
Cosmos 2263 Rocket 3.9 17:36:38 15° SSW 17:37:39 16° SSW 17:41:02 10° SSE
SJ-7 4.2 17:33:48 10° NNE 17:37:41 79° WNW 17:41:40 10° SSW
Cosmos 1271 Rocket 4.0 17:36:57 10° NNE 17:40:21 40° E 17:43:50 10° SSE
Helios 1A Rocket 3.1 17:37:48 10° S 17:41:12 37° WSW 17:42:35 26° WNW
COSMOS 2406 4.2 17:35:43 10° SSW 17:41:14 44° SE 17:46:42 10° ENE
Cosmos 1833 Rocket 3.1 17:39:18 22° SW 17:42:32 43° WNW 17:47:50 10° N
ATLAS 2AS CENTAUR R/B 3.0 17:38:23 21° W 17:43:06 52° SSW 17:50:18 10° SE
NOAA 6 4.5 17:38:04 10° NNE 17:43:10 64° ESE 17:48:21 10° S
MOS 1 Rocket 4.3 17:38:06 10° NE 17:43:23 56° ESE 17:48:34 10° S
ATLAS 3B R/B 3.5 17:42:05 22° W 17:43:41 24° WNW 17:48:42 10° NNW
ARIANE 5 R/B 3.3 17:39:13 10° NNW 17:43:49 30° W 17:46:39 19° SW
Cosmos 2233 Rocket 3.9 17:38:15 10° SSW 17:44:33 79° W 17:50:51 10° N
Meteor 2-14 Rocket 4.5 17:39:52 10° NNW 17:45:59 59° WSW 17:52:11 10° S
Cosmos 1459 Rocket 4.4 17:40:41 10° SSW 17:46:22 40° W 17:52:05 10° NNW
Resurs 01 Rocket 3.4 17:42:37 10° NE 17:46:30 30° ESE 17:50:25 10° S
Cosmos 371 Rocket 3.4 17:41:46 10° NNW 17:46:34 80° ENE 17:51:27 10° SSE
SPOT 1/Viking Rocket 3.7 17:42:09 10° NNE 17:47:21 78° ESE 17:52:36 10° SSW
Lacrosse 5 rocket 0.9 17:45:46 20° NW 17:48:04 80° NNE 17:51:34 10° ESE
SKYMED 2 3.9 17:43:56 10° SSE 17:48:23 72° ENE 17:52:46 10° N
Cosmos 1954 Rocket 4.3 17:43:20 10° NW 17:48:30 48° SW 17:53:44 10° SSE
Cosmos 2082 Rocket 2.5 17:43:16 11° SSW 17:48:51 69° SE 17:54:28 10° NE
Aureole 2 4.0 17:46:30 10° NNW 17:49:19 79° ENE 17:52:16 10° SSE
Meteor 1-31 Rocket 3.9 17:47:26 10° NE 17:50:53 40° ESE 17:54:22 10° S
Cosmos 676 Rocket 4.1 17:45:54 10° NW 17:51:09 56° WSW 17:56:29 10° SSE
COSMO-SKYMED 1 2.8 17:48:04 10° SSE 17:52:18 70° ENE 17:56:30 10° N
Cosmos 2278 Rocket 3.2 17:50:08 10° N 17:55:35 50° ENE 18:01:06 10° SE
Cosmos 1953 3.2 17:56:04 24° W 17:56:19 24° W 17:59:23 10° NW
Timation 2 Rocket 4.4 17:49:57 10° NNW 17:56:48 74° ENE 18:03:30 10° SE
Cosmos 1174 3.8 17:55:14 18° SSW 17:57:19 50° SE 18:00:13 10° ENE
SL-16 R/B 3.4 17:52:29 10° S 17:57:39 28° SW 18:02:49 10° WNW
Meteor 1-21 4.4 17:53:17 10° NW 17:58:43 47° WSW 18:04:15 10° S
Cosmos 1733 Rocket 3.1 17:59:01 10° SSW 18:03:29 60° W 18:07:52 10° N
Cosmos 1814 Rocket 4.0 17:58:52 10° SSW 18:04:07 74° WNW 18:09:21 10° NNE
USA 308 2.6 18:01:59 13° WNW 18:05:37 74° NNE 18:09:01 10° ESE
Cosmos 2061 Rocket 4.1 18:00:35 10° SSW 18:07:01 61° W 18:13:18 10° N
YAOGAN 1 2.5 18:03:08 10° N 18:07:27 72° WNW 18:11:49 10° SSW
Resurs 1-3 3.6 18:04:19 10° NNE 18:08:41 86° WNW 18:13:08 10° SSW
Cosmos 2297 Rocket 4.3 18:06:21 10° SSW 18:08:57 13° S 18:11:32 10° SE
CZ-4 R/B 3.3 18:07:06 10° ENE 18:10:28 27° ESE 18:13:49 10° S
Cosmos 1892 2.5 18:11:57 10° NW 18:14:50 40° WSW 18:17:46 10° S
Cosmos 968 Rocket 3.4 18:09:47 10° NNW 18:14:55 73° WSW 18:20:07 10° SSE
Cosmos 2228 Rocket 3.1 18:10:50 10° NNW 18:15:28 85° W 18:20:08 10° S
Okean 1-7 3.0 18:14:31 10° N 18:18:47 84° E 18:23:04 10° SSE
Terra 4.4 18:17:57 10° E 18:20:32 15° SE 18:23:07 10° SSE
PSLV R/B 4.2 18:18:03 10° NNW 18:21:48 32° W 18:25:39 10° SSW
BREEZE-M DEB (TANK) 3.3 18:20:44 10° WNW 18:22:03 16° NNW 18:23:35 10° NNE
USA 215 3.5 18:15:39 10° ESE 18:22:19 80° NNE 18:28:57 10° WNW
Cosmos 1707 Rocket 3.5 18:18:03 10° NNW 18:22:27 65° WSW 18:26:53 10° S
ISS -3.4 18:19:41 11° WNW 18:23:00 68° N 18:26:27 10° E
Cosmos 1606 4.4 18:20:29 10° SSE 18:23:09 25° ESE 18:25:47 10° NE
Cosmos 1741 Rocket 4.0 18:18:48 10° NNW 18:24:03 73° WSW 18:29:24 10° SSE
Okean 3 4.0 18:21:31 10° NW 18:25:24 36° WSW 18:29:20 10° S
Cosmos 304 Rocket 3.9 18:23:12 10° NW 18:27:51 51° WSW 18:32:34 10° SSE
Cosmos 1844 Rocket 4.1 18:27:47 11° WSW 18:31:24 20° SSW 18:35:28 10° SSE
BlueWalker 3 1.8 18:27:46 10° W 18:31:29 90° NE 18:35:13 10° E
CZ-4B R/B 3.6 18:28:20 10° N 18:31:59 76° WNW 18:35:49 10° SSW
Cosmos 2292 Rocket 3.8 18:26:39 10° NNW 18:32:00 61° WSW 18:36:11 10° S
Cosmos 1464 Rocket 4.3 18:28:10 10° S 18:34:41 82° ESE 18:41:07 10° NNE
Cosmos 1943 Rocket 2.3 18:33:42 10° NNW 18:39:22 89° ENE 18:45:03 10° SSE
Cosmos 2227 Rocket 4.2 18:39:28 10° SSW 18:41:54 13° S 18:44:19 10° SSE
Cosmos 1300 Rocket 3.9 18:41:21 10° S 18:45:48 72° ESE 18:50:13 10° NNE
Cosmos 1850 Rocket 4.3 18:42:29 10° NW 18:47:40 49° WSW 18:52:52 10° SSE
SPOT 5 4.0 18:46:42 10° NE 18:50:45 39° ESE 18:54:54 10° S
Cosmos 158 Rocket 4.4 18:47:32 10° SW 18:52:46 48° WNW 18:57:56 10° N
Aureole 3 Rocket 3.5 18:49:21 10° SSW 18:54:50 53° W 18:58:48 10° NNW
Gbstr 26 Del rocket 4.3 18:50:54 10° W 18:58:22 82° N 19:04:35 10° E
USA 267 4.2 18:52:41 10° NNE 18:58:30 33° NW 19:04:23 10° WSW
